Time,TemperatureF,DewpointF,PressureIn,WindDirection,WindDirectionDegrees,WindSpeedMPH,WindSpeedGustMPH,Humidity,HourlyPrecipIn,Conditions,Clouds,dailyrainin,SoftwareType,DateUTC
2013-03-12 00:21:00,38.3,33.0,30.11,North,350,0.0,0.0,82,0.00,,,0.00,weatherlink.com 1.10,2013-03-12 05:21:00,
2013-03-12 00:36:00,37.7,33.0,30.11,North,350,0.0,0.0,84,0.00,,,0.00,weatherlink.com 1.10,2013-03-12 05:36:00,
2013-03-12 00:51:00,37.1,33.0,30.11,North,350,0.0,0.0,85,0.00,,,0.00,weatherlink.com 1.10,2013-03-12 05:51:00,
2013-03-12 01:06:00,36.9,33.0,30.11,North,350,0.0,0.0,86,0.00,,,0.00,weatherlink.com 1.10,2013-03-12 06:06:00,
2013-03-12 01:21:00,37.1,34.0,30.11,North,350,0.0,0.0,87,0.00,,,0.00,weatherlink.com 1.10,2013-03-12 06:21:00,
2013-03-12 01:36:00,37.0,34.0,30.11,North,350,0.0,0.0,87,0.00,,,0.00,weatherlink.com 1.10,2013-03-12 06:36:00,
2013-03-12 01:51:00,36.8,33.0,30.12,North,350,0.0,0.0,87,0.00,,,0.00,weatherlink.com 1.10,2013-03-12 06:51:00,
2013-03-12 02:07:00,36.6,33.0,30.12,North,350,0.0,0.0,87,0.00,,,0.00,weatherlink.com 1.10,2013-03-12 07:07:00,
2013-03-12 02:21:00,36.4,33.0,30.12,North,350,0.0,0.0,87,0.00,,,0.00,weatherlink.com 1.10,2013-03-12 07:21:00,
2013-03-12 02:36:00,35.9,33.0,30.12,North,350,0.0,0.0,88,0.00,,,0.00,weatherlink.com 1.10,2013-03-12 07:36:00,
2013-03-12 02:52:00,35.5,32.0,30.11,North,350,0.0,0.0,88,0.00,,,0.00,weatherlink.com 1.10,2013-03-12 07:52:00,
2013-03-12 03:07:00,35.2,32.0,30.11,North,350,0.0,0.0,89,0.00,,,0.00,weatherlink.com 1.10,2013-03-12 08:07:00,
2013-03-12 03:22:00,35.1,32.0,30.11,North,350,0.0,0.0,89,0.00,,,0.00,weatherlink.com 1.10,2013-03-12 08:22:00,
2013-03-12 03:37:00,35.2,33.0,30.10,North,350,0.0,0.0,90,0.00,,,0.00,weatherlink.com 1.10,2013-03-12 08:37:00,
2013-03-12 03:52:00,35.0,32.0,30.10,North,350,0.0,0.0,89,0.00,,,0.00,weatherlink.com 1.10,2013-03-12 08:52:00,
2013-03-12 04:07:00,34.9,32.0,30.10,North,350,0.0,0.0,90,0.00,,,0.00,weatherlink.com 1.10,2013-03-12 09:07:00,
2013-03-12 04:22:00,35.0,32.0,30.10,North,350,0.0,0.0,90,0.00,,,0.00,weatherlink.com 1.10,2013-03-12 09:22:00,
2013-03-12 04:37:00,34.6,32.0,30.09,North,350,0.0,0.0,89,0.00,,,0.00,weatherlink.com 1.10,2013-03-12 09:37:00,
2013-03-12 04:52:00,34.3,31.0,30.09,North,350,0.0,0.0,89,0.00,,,0.00,weatherlink.com 1.10,2013-03-12 09:52:00,
2013-03-12 05:07:00,33.8,31.0,30.10,North,350,0.0,0.0,89,0.00,,,0.00,weatherlink.com 1.10,2013-03-12 10:07:00,
2013-03-12 05:22:00,33.4,31.0,30.10,North,350,0.0,0.0,90,0.00,,,0.00,weatherlink.com 1.10,2013-03-12 10:22:00,
2013-03-12 05:37:00,33.5,31.0,30.10,North,350,0.0,0.0,91,0.00,,,0.00,weatherlink.com 1.10,2013-03-12 10:37:00,
2013-03-12 05:52:00,33.1,31.0,30.10,North,350,0.0,0.0,90,0.00,,,0.00,weatherlink.com 1.10,2013-03-12 10:52:00,
2013-03-12 06:07:00,32.7,30.0,30.11,North,350,0.0,0.0,91,0.00,,,0.00,weatherlink.com 1.10,2013-03-12 11:07:00,
2013-03-12 06:52:00,33.2,31.0,30.14,North,350,0.0,0.0,92,0.00,,,0.00,weatherlink.com 1.10,2013-03-12 11:52:00,
2013-03-12 07:07:00,33.2,31.0,30.14,North,350,0.0,0.0,92,0.00,,,0.00,weatherlink.com 1.10,2013-03-12 12:07:00,
2013-03-12 07:22:00,33.3,31.0,30.15,North,350,0.0,0.0,92,0.00,,,0.00,weatherlink.com 1.10,2013-03-12 12:22:00,
2013-03-12 07:37:00,33.3,31.0,30.15,North,350,0.0,0.0,92,0.00,,,0.00,weatherlink.com 1.10,2013-03-12 12:37:00,
2013-03-12 07:52:00,33.0,31.0,30.16,North,350,0.0,0.0,92,0.00,,,0.00,weatherlink.com 1.10,2013-03-12 12:52:00,
2013-03-12 08:07:00,33.0,31.0,30.16,North,350,0.0,0.0,92,0.00,,,0.00,weatherlink.com 1.10,2013-03-12 13:07:00,
2013-03-12 08:22:00,33.0,31.0,30.17,North,350,0.0,0.0,92,0.00,,,0.00,weatherlink.com 1.10,2013-03-12 13:22:00,
2013-03-12 08:37:00,34.0,32.0,30.18,North,350,0.0,0.0,93,0.00,,,0.00,weatherlink.com 1.10,2013-03-12 13:37:00,
2013-03-12 08:52:00,35.1,33.0,30.19,North,350,0.0,0.0,93,0.00,,,0.00,weatherlink.com 1.10,2013-03-12 13:52:00,
2013-03-12 09:07:00,36.2,34.0,30.20,North,350,0.0,0.0,92,0.00,,,0.00,weatherlink.com 1.10,2013-03-12 14:07:00,
2013-03-12 09:22:00,39.0,37.0,30.20,North,350,0.0,0.0,93,0.00,,,0.00,weatherlink.com 1.10,2013-03-12 14:22:00,
2013-03-12 09:37:00,45.9,41.0,30.21,North,350,0.0,0.0,84,0.00,,,0.00,weatherlink.com 1.10,2013-03-12 14:37:00,
2013-03-12 09:52:00,50.6,41.0,30.21,North,350,0.0,0.0,71,0.00,,,0.00,weatherlink.com 1.10,2013-03-12 14:52:00,
2013-03-12 10:07:00,53.3,34.0,30.23,North,360,0.0,2.0,49,0.00,,,0.00,weatherlink.com 1.10,2013-03-12 15:07:00,
2013-03-12 10:23:00,54.9,30.0,30.23,NNE,22,1.0,3.0,39,0.00,,,0.00,weatherlink.com 1.10,2013-03-12 15:23:00,
2013-03-12 10:38:00,57.1,31.0,30.23,ENE,69,2.0,5.0,38,0.00,,,0.00,weatherlink.com 1.10,2013-03-12 15:38:00,
2013-03-12 10:53:00,57.3,28.0,30.24,East,88,1.0,4.0,33,0.00,,,0.00,weatherlink.com 1.10,2013-03-12 15:53:00,
2013-03-12 11:08:00,57.8,29.0,30.24,ENE,68,1.0,8.0,34,0.00,,,0.00,weatherlink.com 1.10,2013-03-12 16:08:00,
2013-03-12 11:23:00,58.7,32.0,30.24,NNW,346,3.0,4.0,36,0.00,,,0.00,weatherlink.com 1.10,2013-03-12 16:23:00,
2013-03-12 11:38:00,59.7,29.0,30.24,East,84,1.0,7.0,31,0.00,,,0.00,weatherlink.com 1.10,2013-03-12 16:38:00,
2013-03-12 11:54:00,58.4,30.0,30.24,ESE,110,2.0,5.0,34,0.00,,,0.00,weatherlink.com 1.10,2013-03-12 16:54:00,
2013-03-12 12:08:00,60.7,30.0,30.24,NE,36,1.0,5.0,32,0.00,,,0.00,weatherlink.com 1.10,2013-03-12 17:08:00,
2013-03-12 12:23:00,60.9,31.0,30.24,NW,325,1.0,5.0,32,0.00,,,0.00,weatherlink.com 1.10,2013-03-12 17:23:00,
2013-03-12 12:38:00,61.4,29.0,30.23,North,5,0.0,3.0,29,0.00,,,0.00,weatherlink.com 1.10,2013-03-12 17:38:00,
2013-03-12 12:54:00,62.7,31.0,30.22,WNW,298,3.0,7.0,31,0.00,,,0.00,weatherlink.com 1.10,2013-03-12 17:54:00,
2013-03-12 13:08:00,63.9,28.0,30.22,NNE,19,2.0,6.0,26,0.00,,,0.00,weatherlink.com 1.10,2013-03-12 18:08:00,
2013-03-12 13:23:00,64.6,30.0,30.22,ESE,119,2.0,5.0,27,0.00,,,0.00,weatherlink.com 1.10,2013-03-12 18:23:00,
2013-03-12 13:38:00,64.6,30.0,30.21,SE,140,3.0,6.0,27,0.00,,,0.00,weatherlink.com 1.10,2013-03-12 18:38:00,
2013-03-12 13:53:00,64.8,28.0,30.20,NE,49,0.0,5.0,25,0.00,,,0.00,weatherlink.com 1.10,2013-03-12 18:53:00,
2013-03-12 14:08:00,65.6,29.0,30.19,ESE,103,1.0,6.0,25,0.00,,,0.00,weatherlink.com 1.10,2013-03-12 19:08:00,
2013-03-12 14:23:00,66.3,28.0,30.19,East,97,2.0,5.0,24,0.00,,,0.00,weatherlink.com 1.10,2013-03-12 19:23:00,
2013-03-12 14:38:00,65.7,30.0,30.18,ESE,106,1.0,6.0,26,0.00,,,0.00,weatherlink.com 1.10,2013-03-12 19:38:00,
2013-03-12 14:53:00,67.2,31.0,30.18,West,259,4.0,5.0,26,0.00,,,0.00,weatherlink.com 1.10,2013-03-12 19:53:00,
2013-03-12 15:08:00,67.7,33.0,30.17,NNW,348,1.0,4.0,28,0.00,,,0.00,weatherlink.com 1.10,2013-03-12 20:08:00,
2013-03-12 15:23:00,67.8,31.0,30.16,WSW,239,0.0,4.0,25,0.00,,,0.00,weatherlink.com 1.10,2013-03-12 20:23:00,
2013-03-12 15:38:00,67.7,32.0,30.16,NW,323,1.0,5.0,27,0.00,,,0.00,weatherlink.com 1.10,2013-03-12 20:38:00,
2013-03-12 15:53:00,68.3,31.0,30.16,NW,304,1.0,4.0,25,0.00,,,0.00,weatherlink.com 1.10,2013-03-12 20:53:00,
2013-03-12 16:08:00,68.2,31.0,30.16,West,270,1.0,4.0,25,0.00,,,0.00,weatherlink.com 1.10,2013-03-12 21:08:00,
2013-03-12 16:23:00,69.6,30.0,30.15,SSW,204,0.0,4.0,23,0.00,,,0.00,weatherlink.com 1.10,2013-03-12 21:23:00,
2013-03-12 16:38:00,69.3,31.0,30.15,SE,137,1.0,5.0,24,0.00,,,0.00,weatherlink.com 1.10,2013-03-12 21:38:00,
2013-03-12 16:53:00,69.1,33.0,30.15,NE,46,2.0,4.0,26,0.00,,,0.00,weatherlink.com 1.10,2013-03-12 21:53:00,
2013-03-12 17:08:00,70.0,33.0,30.15,SE,125,0.0,3.0,25,0.00,,,0.00,weatherlink.com 1.10,2013-03-12 22:08:00,
2013-03-12 17:23:00,68.7,30.0,30.15,ESE,109,2.0,3.0,24,0.00,,,0.00,weatherlink.com 1.10,2013-03-12 22:23:00,
2013-03-12 17:38:00,68.3,32.0,30.15,SSE,159,0.0,4.0,26,0.00,,,0.00,weatherlink.com 1.10,2013-03-12 22:38:00,
2013-03-12 17:53:00,67.7,31.0,30.15,SE,134,2.0,4.0,25,0.00,,,0.00,weatherlink.com 1.10,2013-03-12 22:53:00,
2013-03-12 18:08:00,67.3,30.0,30.15,SSE,155,0.0,4.0,25,0.00,,,0.00,weatherlink.com 1.10,2013-03-12 23:08:00,
2013-03-12 18:23:00,66.4,30.0,30.16,SSE,155,0.0,2.0,26,0.00,,,0.00,weatherlink.com 1.10,2013-03-12 23:23:00,
2013-03-12 18:38:00,66.1,33.0,30.16,SSE,155,0.0,0.0,29,0.00,,,0.00,weatherlink.com 1.10,2013-03-12 23:38:00,
2013-03-12 18:53:00,65.0,33.0,30.17,SSE,155,0.0,0.0,30,0.00,,,0.00,weatherlink.com 1.10,2013-03-12 23:53:00,
2013-03-12 19:08:00,63.8,34.0,30.18,SSE,155,0.0,0.0,33,0.00,,,0.00,weatherlink.com 1.10,2013-03-13 00:08:00,
2013-03-12 19:23:00,62.6,33.0,30.19,SSE,155,0.0,0.0,33,0.00,,,0.00,weatherlink.com 1.10,2013-03-13 00:23:00,
2013-03-12 19:38:00,61.2,35.0,30.20,SSE,155,0.0,0.0,37,0.00,,,0.00,weatherlink.com 1.10,2013-03-13 00:38:00,
2013-03-12 19:53:00,59.5,35.0,30.20,SSE,155,0.0,0.0,40,0.00,,,0.00,weatherlink.com 1.10,2013-03-13 00:53:00,
2013-03-12 20:08:00,58.1,35.0,30.20,SSE,155,0.0,0.0,43,0.00,,,0.00,weatherlink.com 1.10,2013-03-13 01:08:00,
2013-03-12 20:23:00,56.7,39.0,30.21,SSE,155,0.0,0.0,51,0.00,,,0.00,weatherlink.com 1.10,2013-03-13 01:23:00,
2013-03-12 20:38:00,55.1,43.0,30.22,SSE,155,0.0,0.0,64,0.00,,,0.00,weatherlink.com 1.10,2013-03-13 01:38:00,
2013-03-12 20:53:00,53.5,40.0,30.22,SSE,155,0.0,0.0,60,0.00,,,0.00,weatherlink.com 1.10,2013-03-13 01:53:00,
2013-03-12 21:08:00,52.6,41.0,30.23,SSE,155,0.0,0.0,65,0.00,,,0.00,weatherlink.com 1.10,2013-03-13 02:08:00,
2013-03-12 21:23:00,51.7,42.0,30.23,SSE,155,0.0,0.0,69,0.00,,,0.00,weatherlink.com 1.10,2013-03-13 02:23:00,
2013-03-12 21:38:00,50.3,43.0,30.24,SSE,155,1.0,1.0,75,0.00,,,0.00,weatherlink.com 1.10,2013-03-13 02:38:00,
2013-03-12 21:53:00,49.0,41.0,30.25,East,81,0.0,1.0,73,0.00,,,0.00,weatherlink.com 1.10,2013-03-13 02:53:00,
2013-03-12 22:08:00,48.5,40.0,30.25,East,81,0.0,0.0,73,0.00,,,0.00,weatherlink.com 1.10,2013-03-13 03:08:00,
2013-03-12 22:23:00,47.8,40.0,30.25,East,81,0.0,1.0,75,0.00,,,0.00,weatherlink.com 1.10,2013-03-13 03:23:00,
2013-03-12 22:38:00,47.6,40.0,30.26,East,81,0.0,1.0,76,0.00,,,0.00,weatherlink.com 1.10,2013-03-13 03:38:00,
2013-03-12 22:53:00,47.2,41.0,30.27,East,81,0.0,1.0,78,0.00,,,0.00,weatherlink.com 1.10,2013-03-13 03:53:00,
2013-03-12 23:08:00,46.8,41.0,30.27,East,81,0.0,0.0,79,0.00,,,0.00,weatherlink.com 1.10,2013-03-13 04:08:00,
2013-03-12 23:23:00,46.6,40.0,30.28,East,81,0.0,0.0,79,0.00,,,0.00,weatherlink.com 1.10,2013-03-13 04:23:00,
2013-03-12 23:38:00,46.3,40.0,30.28,East,81,0.0,1.0,80,0.00,,,0.00,weatherlink.com 1.10,2013-03-13 04:38:00,
2013-03-12 23:54:00,45.9,41.0,30.28,East,81,0.0,0.0,82,0.00,,,0.00,weatherlink.com 1.10,2013-03-13 04:54:00,